Location: Reggio Emilia
(44.6990°N, 10.6297°E)
Time: 22:02:04
(UTC+01:00)

ISS - Visible Passes

Search period start: 27 February 2020 00:00
Search period end: 08 March 2020 00:00
Orbit: 415 x 423 km, 51.6° (Epoch: 28 February)

Date Brightness Start Highest point End Pass type
(mag) Time Alt. Az. Time Alt. Az. Time Alt. Az.
27 Feb -1.2 04:26:22 21° E 04:26:22 21° E 04:27:46 10° ENE visible
27 Feb -3.1 05:59:19 19° W 06:01:23 40° NNW 06:04:37 10° NE visible
28 Feb -3.5 05:13:40 55° NNW 05:13:41 55° NNW 05:17:02 10° NE visible
29 Feb -1.4 04:27:56 24° ENE 04:27:56 24° ENE 04:29:24 10° ENE visible
29 Feb -2.3 06:00:53 14° WNW 06:03:09 27° N 06:06:08 10° NE visible
01 Mar -2.7 05:15:06 32° NNW 05:15:21 32° NNW 05:18:27 10° NE visible
02 Mar -1.5 04:29:16 23° NE 04:29:16 23° NE 04:30:49 10° NE visible
02 Mar -2.0 06:02:13 10° WNW 06:04:58 24° N 06:07:49 10° ENE visible
03 Mar -2.2 05:16:21 23° NNW 05:17:07 25° N 05:20:00 10° NE visible
04 Mar -1.5 04:30:27 22° NNE 04:30:27 22° NNE 04:32:14 10° NE visible
04 Mar -2.1 06:03:48 10° NW 06:06:44 27° N 06:09:41 10° ENE visible
05 Mar -2.0 05:17:30 19° NNW 05:18:53 25° N 05:21:44 10° ENE visible
06 Mar -1.6 04:31:37 23° NNE 04:31:37 23° NNE 04:33:49 10° ENE visible
06 Mar -2.6 06:05:11 10° NW 06:08:23 39° NNE 06:11:36 10° E visible
07 Mar -0.3 03:45:44 11° NE 03:45:44 11° NE 03:45:58 10° NE visible
07 Mar -2.2 05:18:40 18° NW 05:20:33 31° NNE 05:23:37 10° E visible
